Time,TemperatureF,DewpointF,PressureIn,WindDirection,WindDirectionDegrees,WindSpeedMPH,WindSpeedGustMPH,Humidity,HourlyPrecipIn,Conditions,Clouds,dailyrainin,SoftwareType,DateUTC
2013-07-09 00:02:00,77.0,-99.9,-100.00,SSW,193,0.0,-999.0,-999,-99.99,,,-99.99,,2013-07-09 04:02:00,
2013-07-09 00:11:00,77.0,-99.9,-100.00,SSW,198,0.0,-999.0,-999,-99.99,,,-99.99,,2013-07-09 04:11:00,
2013-07-09 00:22:00,77.0,-99.9,-100.00,SSW,197,0.0,-999.0,-999,-99.99,,,-99.99,,2013-07-09 04:22:00,
2013-07-09 00:43:00,77.0,-99.9,-100.00,SSW,197,0.0,-999.0,-999,-99.99,,,-99.99,,2013-07-09 04:43:00,
2013-07-09 00:53:00,77.0,-99.9,-100.00,SSW,197,0.0,-999.0,-999,-99.99,,,-99.99,,2013-07-09 04:53:00,
2013-07-09 01:02:00,77.0,-99.9,-100.00,SSW,211,0.0,-999.0,-999,-99.99,,,-99.99,,2013-07-09 05:02:00,
2013-07-09 01:12:00,77.0,-99.9,-100.00,SSW,211,0.0,-999.0,-999,-99.99,,,-99.99,,2013-07-09 05:12:00,
2013-07-09 01:34:00,76.0,-99.9,-100.00,SSW,211,0.0,-999.0,-999,-99.99,,,-99.99,,2013-07-09 05:34:00,
2013-07-09 01:43:00,76.0,-99.9,-100.00,SSW,211,0.0,-999.0,-999,-99.99,,,-99.99,,2013-07-09 05:43:00,
2013-07-09 01:52:00,76.0,-99.9,-100.00,SSW,211,0.0,-999.0,-999,-99.99,,,-99.99,,2013-07-09 05:52:00,
2013-07-09 02:02:00,76.0,-99.9,-100.00,SSW,208,0.0,-999.0,-999,-99.99,,,-99.99,,2013-07-09 06:02:00,
2013-07-09 02:12:00,76.0,-99.9,-100.00,SSW,208,0.0,-999.0,-999,-99.99,,,-99.99,,2013-07-09 06:12:00,
2013-07-09 02:22:00,76.0,-99.9,-100.00,SSW,200,0.0,-999.0,-999,-99.99,,,-99.99,,2013-07-09 06:22:00,
2013-07-09 02:43:00,76.0,-99.9,-100.00,SSW,205,0.0,-999.0,-999,-99.99,,,-99.99,,2013-07-09 06:43:00,
2013-07-09 02:53:00,75.0,-99.9,-100.00,SSW,202,0.0,-999.0,-999,-99.99,,,-99.99,,2013-07-09 06:53:00,
2013-07-09 03:02:00,75.0,-99.9,-100.00,SSW,202,0.0,-999.0,-999,-99.99,,,-99.99,,2013-07-09 07:02:00,
2013-07-09 03:12:00,75.0,-99.9,-100.00,SSW,202,0.0,-999.0,-999,-99.99,,,-99.99,,2013-07-09 07:12:00,
2013-07-09 03:23:00,75.0,-99.9,-100.00,SSW,202,0.0,-999.0,-999,-99.99,,,-99.99,,2013-07-09 07:23:00,
2013-07-09 03:34:00,75.0,-99.9,-100.00,SSW,202,0.0,-999.0,-999,-99.99,,,-99.99,,2013-07-09 07:34:00,
2013-07-09 03:43:00,75.0,-99.9,-100.00,SSW,202,0.0,-999.0,-999,-99.99,,,-99.99,,2013-07-09 07:43:00,
2013-07-09 03:53:00,75.0,-99.9,-100.00,SSW,202,0.0,-999.0,-999,-99.99,,,-99.99,,2013-07-09 07:53:00,
2013-07-09 04:01:00,74.0,-99.9,-100.00,SSW,203,0.0,-999.0,-999,-99.99,,,-99.99,,2013-07-09 08:01:00,
2013-07-09 04:12:00,74.0,-99.9,-100.00,SSW,203,0.0,-999.0,-999,-99.99,,,-99.99,,2013-07-09 08:12:00,
2013-07-09 04:22:00,74.0,-99.9,-100.00,SSW,203,0.0,-999.0,-999,-99.99,,,-99.99,,2013-07-09 08:22:00,
2013-07-09 04:33:00,74.0,-99.9,-100.00,SSW,203,0.0,-999.0,-999,-99.99,,,-99.99,,2013-07-09 08:33:00,
2013-07-09 04:43:00,74.0,-99.9,-100.00,SSW,203,0.0,-999.0,-999,-99.99,,,-99.99,,2013-07-09 08:43:00,
2013-07-09 04:52:00,74.0,-99.9,-100.00,SSW,203,0.0,-999.0,-999,-99.99,,,-99.99,,2013-07-09 08:52:00,
2013-07-09 05:02:00,74.0,-99.9,-100.00,SSW,203,0.0,-999.0,-999,-99.99,,,-99.99,,2013-07-09 09:02:00,
2013-07-09 05:12:00,74.0,-99.9,-100.00,SSW,203,0.0,-999.0,-999,-99.99,,,-99.99,,2013-07-09 09:12:00,
2013-07-09 05:22:00,74.0,-99.9,-100.00,SSW,203,0.0,-999.0,-999,-99.99,,,-99.99,,2013-07-09 09:22:00,
2013-07-09 05:43:00,74.0,-99.9,-100.00,SSW,203,0.0,-999.0,-999,-99.99,,,-99.99,,2013-07-09 09:43:00,
2013-07-09 05:53:00,74.0,-99.9,-100.00,SSW,203,0.0,-999.0,-999,-99.99,,,-99.99,,2013-07-09 09:53:00,
2013-07-09 06:02:00,74.0,-99.9,-100.00,SSW,203,0.0,-999.0,-999,-99.99,,,-99.99,,2013-07-09 10:02:00,
2013-07-09 06:11:00,74.0,-99.9,-100.00,SSW,203,0.0,-999.0,-999,-99.99,,,-99.99,,2013-07-09 10:11:00,
2013-07-09 06:22:00,74.0,-99.9,-100.00,SSW,203,0.0,-999.0,-999,-99.99,,,-99.99,,2013-07-09 10:22:00,
2013-07-09 06:34:00,74.0,-99.9,-100.00,SSW,203,0.0,-999.0,-999,-99.99,,,-99.99,,2013-07-09 10:34:00,
2013-07-09 06:42:00,74.0,-99.9,-100.00,SSW,203,0.0,-999.0,-999,-99.99,,,-99.99,,2013-07-09 10:42:00,
2013-07-09 06:52:00,74.0,-99.9,-100.00,SSW,203,0.0,-999.0,-999,-99.99,,,-99.99,,2013-07-09 10:52:00,
2013-07-09 07:02:00,74.0,-99.9,-100.00,SSW,203,0.0,-999.0,-999,-99.99,,,-99.99,,2013-07-09 11:02:00,
2013-07-09 07:11:00,73.0,-99.9,-100.00,SSW,203,0.0,-999.0,-999,-99.99,,,-99.99,,2013-07-09 11:11:00,
2013-07-09 07:22:00,73.0,-99.9,-100.00,SSW,203,0.0,-999.0,-999,-99.99,,,-99.99,,2013-07-09 11:22:00,
2013-07-09 07:42:00,74.0,-99.9,-100.00,SSW,203,0.0,-999.0,-999,-99.99,,,-99.99,,2013-07-09 11:42:00,
2013-07-09 07:53:00,74.0,-99.9,-100.00,SSW,203,0.0,-999.0,-999,-99.99,,,-99.99,,2013-07-09 11:53:00,
2013-07-09 08:12:00,75.0,-99.9,-100.00,SSW,203,0.0,-999.0,-999,-99.99,,,-99.99,,2013-07-09 12:12:00,
2013-07-09 08:22:00,75.0,-99.9,-100.00,SSW,203,0.0,-999.0,-999,-99.99,,,-99.99,,2013-07-09 12:22:00,
2013-07-09 08:33:00,75.0,-99.9,-100.00,SSW,203,0.0,-999.0,-999,-99.99,,,-99.99,,2013-07-09 12:33:00,
2013-07-09 08:43:00,76.0,-99.9,-100.00,SSW,204,0.0,-999.0,-999,-99.99,,,-99.99,,2013-07-09 12:43:00,
2013-07-09 08:53:00,77.0,-99.9,-100.00,SSW,208,0.0,-999.0,-999,-99.99,,,-99.99,,2013-07-09 12:53:00,
2013-07-09 09:11:00,77.0,-99.9,-100.00,SSW,209,0.0,-999.0,-999,-99.99,,,-99.99,,2013-07-09 13:11:00,
2013-07-09 09:44:00,79.0,-99.9,-100.00,SSW,197,0.0,-999.0,-999,-99.99,,,-99.99,,2013-07-09 13:44:00,
2013-07-09 09:53:00,80.0,-99.9,-100.00,SSW,209,0.0,-999.0,-999,-99.99,,,-99.99,,2013-07-09 13:53:00,
2013-07-09 10:02:00,80.0,-99.9,-100.00,SSW,209,0.0,-999.0,-999,-99.99,,,-99.99,,2013-07-09 14:02:00,
2013-07-09 10:11:00,81.0,-99.9,-100.00,WSW,240,0.0,-999.0,-999,-99.99,,,-99.99,,2013-07-09 14:11:00,
2013-07-09 10:22:00,81.0,-99.9,-100.00,SW,216,0.0,-999.0,-999,-99.99,,,-99.99,,2013-07-09 14:22:00,
2013-07-09 10:34:00,81.0,-99.9,-100.00,SW,216,0.0,-999.0,-999,-99.99,,,-99.99,,2013-07-09 14:34:00,
2013-07-09 10:43:00,82.0,-99.9,-100.00,SSW,209,0.0,-999.0,-999,-99.99,,,-99.99,,2013-07-09 14:43:00,
2013-07-09 10:53:00,82.0,-99.9,-100.00,SSW,201,1.0,-999.0,-999,-99.99,,,-99.99,,2013-07-09 14:53:00,
2013-07-09 11:02:00,82.0,-99.9,-100.00,SSW,201,1.0,-999.0,-999,-99.99,,,-99.99,,2013-07-09 15:02:00,
2013-07-09 11:12:00,84.0,-99.9,-100.00,SSE,168,0.0,-999.0,-999,-99.99,,,-99.99,,2013-07-09 15:12:00,
2013-07-09 11:34:00,83.0,-99.9,-100.00,SSW,199,1.0,-999.0,-999,-99.99,,,-99.99,,2013-07-09 15:34:00,
2013-07-09 11:43:00,84.0,-99.9,-100.00,West,266,0.0,-999.0,-999,-99.99,,,-99.99,,2013-07-09 15:43:00,
2013-07-09 11:52:00,85.0,-99.9,-100.00,SSW,204,4.0,-999.0,-999,-99.99,,,-99.99,,2013-07-09 15:52:00,
2013-07-09 12:12:00,86.0,-99.9,-100.00,SSW,198,0.0,-999.0,-999,-99.99,,,-99.99,,2013-07-09 16:12:00,
2013-07-09 12:34:00,86.0,-99.9,-100.00,WSW,239,0.0,-999.0,-999,-99.99,,,-99.99,,2013-07-09 16:34:00,
2013-07-09 12:43:00,87.0,-99.9,-100.00,SSW,199,0.0,-999.0,-999,-99.99,,,-99.99,,2013-07-09 16:43:00,
2013-07-09 12:53:00,87.0,-99.9,-100.00,SW,226,0.0,-999.0,-999,-99.99,,,-99.99,,2013-07-09 16:53:00,
2013-07-09 13:02:00,87.0,-99.9,-100.00,SW,226,0.0,-999.0,-999,-99.99,,,-99.99,,2013-07-09 17:02:00,
2013-07-09 13:12:00,89.0,-99.9,-100.00,SSW,211,3.0,-999.0,-999,-99.99,,,-99.99,,2013-07-09 17:12:00,
2013-07-09 13:35:00,89.0,-99.9,-100.00,West,263,0.0,-999.0,-999,-99.99,,,-99.99,,2013-07-09 17:35:00,
2013-07-09 13:45:00,87.0,-99.9,-100.00,WSW,246,4.0,-999.0,-999,-99.99,,,-99.99,,2013-07-09 17:45:00,
2013-07-09 13:53:00,90.0,-99.9,-100.00,WSW,237,0.0,-999.0,-999,-99.99,,,-99.99,,2013-07-09 17:53:00,
2013-07-09 14:02:00,90.0,-99.9,-100.00,WSW,237,0.0,-999.0,-999,-99.99,,,-99.99,,2013-07-09 18:02:00,
2013-07-09 14:11:00,89.0,-99.9,-100.00,SSW,212,5.0,-999.0,-999,-99.99,,,-99.99,,2013-07-09 18:11:00,
2013-07-09 14:22:00,90.0,-99.9,-100.00,SW,217,0.0,-999.0,-999,-99.99,,,-99.99,,2013-07-09 18:22:00,
2013-07-09 14:32:00,90.0,-99.9,-100.00,SW,217,0.0,-999.0,-999,-99.99,,,-99.99,,2013-07-09 18:32:00,
2013-07-09 14:43:00,87.0,-99.9,-100.00,SW,236,5.0,-999.0,-999,-99.99,,,-99.99,,2013-07-09 18:43:00,
2013-07-09 14:52:00,87.0,-99.9,-100.00,SSW,193,2.0,-999.0,-999,-99.99,,,-99.99,,2013-07-09 18:52:00,
2013-07-09 15:02:00,87.0,-99.9,-100.00,SSW,193,2.0,-999.0,-999,-99.99,,,-99.99,,2013-07-09 19:02:00,
2013-07-09 15:11:00,88.0,-99.9,-100.00,SW,223,0.0,-999.0,-999,-99.99,,,-99.99,,2013-07-09 19:11:00,
2013-07-09 15:43:00,87.0,-99.9,-100.00,WSW,243,1.0,-999.0,-999,-99.99,,,-99.99,,2013-07-09 19:43:00,
2013-07-09 15:52:00,85.0,-99.9,-100.00,South,181,0.0,-999.0,-999,-99.99,,,-99.99,,2013-07-09 19:52:00,
2013-07-09 16:02:00,85.0,-99.9,-100.00,South,181,0.0,-999.0,-999,-99.99,,,-99.99,,2013-07-09 20:02:00,
2013-07-09 16:11:00,84.0,-99.9,-100.00,WSW,239,1.0,-999.0,-999,-99.99,,,-99.99,,2013-07-09 20:11:00,
2013-07-09 16:33:00,84.0,-99.9,-100.00,SW,229,0.0,-999.0,-999,-99.99,,,-99.99,,2013-07-09 20:33:00,
2013-07-09 16:43:00,84.0,-99.9,-100.00,SW,231,0.0,-999.0,-999,-99.99,,,-99.99,,2013-07-09 20:43:00,
2013-07-09 16:52:00,83.0,-99.9,-100.00,SW,221,0.0,-999.0,-999,-99.99,,,-99.99,,2013-07-09 20:52:00,
2013-07-09 17:02:00,83.0,-99.9,-100.00,SW,221,0.0,-999.0,-999,-99.99,,,-99.99,,2013-07-09 21:02:00,
2013-07-09 17:11:00,83.0,-99.9,-100.00,SW,232,0.0,-999.0,-999,-99.99,,,-99.99,,2013-07-09 21:11:00,
2013-07-09 17:22:00,83.0,-99.9,-100.00,NW,306,0.0,-999.0,-999,-99.99,,,-99.99,,2013-07-09 21:22:00,
2013-07-09 17:32:00,83.0,-99.9,-100.00,NW,306,0.0,-999.0,-999,-99.99,,,-99.99,,2013-07-09 21:32:00,
2013-07-09 17:43:00,84.0,-99.9,-100.00,West,277,0.0,-999.0,-999,-99.99,,,-99.99,,2013-07-09 21:43:00,
2013-07-09 17:52:00,84.0,-99.9,-100.00,WSW,255,1.0,-999.0,-999,-99.99,,,-99.99,,2013-07-09 21:52:00,
2013-07-09 18:01:00,84.0,-99.9,-100.00,WSW,255,1.0,-999.0,-999,-99.99,,,-99.99,,2013-07-09 22:01:00,
2013-07-09 18:11:00,84.0,-99.9,-100.00,WSW,254,0.0,-999.0,-999,-99.99,,,-99.99,,2013-07-09 22:11:00,
2013-07-09 18:22:00,85.0,-99.9,-100.00,WSW,254,0.0,-999.0,-999,-99.99,,,-99.99,,2013-07-09 22:22:00,
2013-07-09 18:33:00,85.0,-99.9,-100.00,WSW,254,0.0,-999.0,-999,-99.99,,,-99.99,,2013-07-09 22:33:00,
2013-07-09 18:42:00,85.0,-99.9,-100.00,South,182,0.0,-999.0,-999,-99.99,,,-99.99,,2013-07-09 22:42:00,
2013-07-09 18:53:00,84.0,-99.9,-100.00,South,185,0.0,-999.0,-999,-99.99,,,-99.99,,2013-07-09 22:53:00,
2013-07-09 19:02:00,84.0,-99.9,-100.00,South,185,0.0,-999.0,-999,-99.99,,,-99.99,,2013-07-09 23:02:00,
2013-07-09 19:12:00,85.0,-99.9,-100.00,South,186,0.0,-999.0,-999,-99.99,,,-99.99,,2013-07-09 23:12:00,
2013-07-09 19:23:00,85.0,-99.9,-100.00,South,186,0.0,-999.0,-999,-99.99,,,-99.99,,2013-07-09 23:23:00,
2013-07-09 19:33:00,84.0,-99.9,-100.00,SSW,199,0.0,-999.0,-999,-99.99,,,-99.99,,2013-07-09 23:33:00,
2013-07-09 19:43:00,84.0,-99.9,-100.00,SSW,199,0.0,-999.0,-999,-99.99,,,-99.99,,2013-07-09 23:43:00,
2013-07-09 19:53:00,84.0,-99.9,-100.00,SSW,193,0.0,-999.0,-999,-99.99,,,-99.99,,2013-07-09 23:53:00,
2013-07-09 20:01:00,83.0,-99.9,-100.00,SSW,193,0.0,-999.0,-999,-99.99,,,-99.99,,2013-07-10 00:01:00,
2013-07-09 20:11:00,83.0,-99.9,-100.00,SSW,193,0.0,-999.0,-999,-99.99,,,-99.99,,2013-07-10 00:11:00,
2013-07-09 20:22:00,83.0,-99.9,-100.00,SSW,193,0.0,-999.0,-999,-99.99,,,-99.99,,2013-07-10 00:22:00,
2013-07-09 20:33:00,83.0,-99.9,-100.00,SSW,205,0.0,-999.0,-999,-99.99,,,-99.99,,2013-07-10 00:33:00,
2013-07-09 20:43:00,83.0,-99.9,-100.00,SSW,205,0.0,-999.0,-999,-99.99,,,-99.99,,2013-07-10 00:43:00,
2013-07-09 20:52:00,82.0,-99.9,-100.00,SSW,200,0.0,-999.0,-999,-99.99,,,-99.99,,2013-07-10 00:52:00,
2013-07-09 21:01:00,82.0,-99.9,-100.00,SSW,201,0.0,-999.0,-999,-99.99,,,-99.99,,2013-07-10 01:01:00,
2013-07-09 21:11:00,82.0,-99.9,-100.00,SSW,201,0.0,-999.0,-999,-99.99,,,-99.99,,2013-07-10 01:11:00,
2013-07-09 21:22:00,82.0,-99.9,-100.00,SSW,208,3.0,-999.0,-999,-99.99,,,-99.99,,2013-07-10 01:22:00,
2013-07-09 21:33:00,82.0,-99.9,-100.00,SSW,208,3.0,-999.0,-999,-99.99,,,-99.99,,2013-07-10 01:33:00,
2013-07-09 21:43:00,82.0,-99.9,-100.00,SSW,198,0.0,-999.0,-999,-99.99,,,-99.99,,2013-07-10 01:43:00,
2013-07-09 21:53:00,81.0,-99.9,-100.00,SSW,205,0.0,-999.0,-999,-99.99,,,-99.99,,2013-07-10 01:53:00,
2013-07-09 22:12:00,81.0,-99.9,-100.00,SSW,204,0.0,-999.0,-999,-99.99,,,-99.99,,2013-07-10 02:12:00,
2013-07-09 22:23:00,81.0,-99.9,-100.00,SSW,199,1.0,-999.0,-999,-99.99,,,-99.99,,2013-07-10 02:23:00,
2013-07-09 22:43:00,81.0,-99.9,-100.00,South,189,0.0,-999.0,-999,-99.99,,,-99.99,,2013-07-10 02:43:00,
2013-07-09 23:12:00,80.0,-99.9,-100.00,South,186,0.0,-999.0,-999,-99.99,,,-99.99,,2013-07-10 03:12:00,
2013-07-09 23:22:00,80.0,-99.9,-100.00,South,187,0.0,-999.0,-999,-99.99,,,-99.99,,2013-07-10 03:22:00,
2013-07-09 23:43:00,79.0,-99.9,-100.00,South,187,1.0,-999.0,-999,-99.99,,,-99.99,,2013-07-10 03:43:00,
2013-07-09 23:52:00,79.0,-99.9,-100.00,South,189,0.0,-999.0,-999,-99.99,,,-99.99,,2013-07-10 03:52:00,